Location: Fornova de Taro
(44.7000°N, 10.1000°E)
Time: 21:59:57
(UTC+00:00)

Cosmos 1025 Rocket - Pass Details

Date: 26 May 2022
Orbit: 593 x 617 km, 82.5° (Epoch: 03 July)

Event Time Altitude Azimuth Distance (km) Brightness Sun altitude
Exits shadow 00:47:11 53° 161° (SSE) 752 3.1 -21.0°
Maximum altitude 00:48:06 72° 97° (E) 639 3.1 -21.0°
Drops below altitude 10° 00:52:25 10° 13° (NNE) 1,955 6.8 -20.7°
Sets 00:54:38 0° 11° (N) 2,859 7.9 -20.5°
